Regional Weather Roundup
Issued by NWS

Home | Current Version | Previous Version | Graphics & Text | Print | Product List | Glossary On
Versions: 1 2 3 4 5 6 7 8 9 10 11 12 13 14 15 16 17 18 19 20 21 22 23 24 25 26 27 28 29 30 31 32 33 34 35 36 37 38 39 40 41 42 43 44 45 46 47 48 49 50
000
ASUS45 KCYS 261310
RWRWY

WYOMING REGIONAL WEATHER ROUNDUP
NATIONAL WEATHER SERVICE CHEYENNE WY
700 AM MDT SUN APR 26 2015

NOTE:  "FAIR" INDICATES FEW OR NO CLOUDS BELOW 12,000 FEET
WITH NO SIGNIFICANT WEATHER AND/OR OBSTRUCTIONS TO VISIBILITY.

WYZ001-261400-
YELLOWSTONE NATIONAL PARK

CITY           SKY/WX    TMP DP  RH WIND       PRES   REMARKS
LK YELLOWSTONE   N/A     31  25  78 CALM      29.85R
W YELLOWSTONE  NOT AVBL

$$
WYZ002>013-054>058-071-098>099-261400-
NORTHERN WYOMING

CITY           SKY/WX    TMP DP  RH WIND       PRES   REMARKS
JACKSON        LGT SNOW  34  34 100 CALM      29.79R
CODY           CLOUDY    36  32  87 N12       29.90R WCI  27
GREYBULL       CLOUDY    43  36  76 SW5       29.86R
WORLAND        CLOUDY    42  37  82 CALM      29.86R
SHERIDAN       CLOUDY    38  35  89 N3        29.96R
BUFFALO        LGT RAIN  37  33  85 N7        29.95R WCI  32
GILLETTE       CLOUDY    40  35  83 NE13      29.93R WCI  32
HULETT         CLOUDY    39  37  93 NE8       29.95S WCI  34
NEWCASTLE      PTSUNNY   41  41 100 W3        29.89R

$$
WYZ014>020-022>026-101>103-261400-
CENTRAL WYOMING

CITY           SKY/WX    TMP DP  RH WIND       PRES   REMARKS
BIG PINEY      CLOUDY    37  35  92 SE16      29.76R WCI  28
PINEDALE       LGT RAIN  36  36 100 E7        29.77S WCI  30
DUBOIS         LGT SNOW  32  30  93 SE8       29.82R WCI  25
LANDER         LGT SNOW  33  32  96 NW9       29.83R FOG     WCI  25
RIVERTON       LGT RAIN  35  33  92 N8        29.84R FOG     WCI  29
CASPER         LGT RAIN  35  33  92 NE17G23   29.85F WCI  25
DOUGLAS        LGT RAIN  42  40  92 VRB3      29.86R

$$
WYZ021-027>030-104>119-261400-
SOUTHERN WYOMING

CITY           SKY/WX    TMP DP  RH WIND       PRES   REMARKS
EVANSTON       SNOW      32  31  96 SW10      29.78R VSB 1/4 WCI  24
KEMMERER       LGT RAIN  34  34 100 W6        29.75R WCI  29
FORT BRIDGER   CLOUDY    36  36 100 W15       29.78R WCI  26
ROCK SPRINGS   FAIR      38  34  85 CALM      29.75R
DIXON          PTSUNNY   39  35  84 CALM      29.79R
RAWLINS        CLOUDY    37  34  89 NE12      29.80R WCI  29
SARATOGA       CLOUDY    37  36  93 SE5       29.80R WCI  34
LARAMIE        CLOUDY    35  34  96 CALM      29.82S
CHEYENNE       CLOUDY    42  40  92 SE10G22   29.83R
TORRINGTON     LGT RAIN  47  45  93 E13       29.84R
PINE BLUFFS    RAIN      43  41  93 S8        29.85R

$$



USA.gov is the U.S. government's official web portal to all federal, state and local government web resources and services.